Time,TemperatureF,DewpointF,PressureIn,WindDirection,WindDirectionDegrees,WindSpeedMPH,WindSpeedGustMPH,Humidity,HourlyPrecipIn,Conditions,Clouds,dailyrainin,SoftwareType,DateUTC
2013-01-23 00:00:00,14.0,-2.7,29.83,WNW,293,0.9,0.9,47,0.00,,,0.00,WUHU216HW,2013-01-23 05:00:00,
2013-01-23 00:02:00,14.0,-2.7,29.83,WNW,293,0.9,0.9,47,0.00,,,0.00,WUHU216HW,2013-01-23 05:02:00,
2013-01-23 00:03:00,14.0,-2.7,29.83,WNW,293,0.9,0.9,47,0.00,,,0.00,WUHU216HW,2013-01-23 05:03:00,
2013-01-23 00:08:00,14.0,-2.7,29.83,WNW,293,0.9,0.9,47,0.00,,,0.00,WUHU216HW,2013-01-23 05:08:00,
2013-01-23 00:30:00,13.3,-1.9,29.82,ENE,68,0.0,0.0,50,0.00,,,0.00,WUHU216HW,2013-01-23 05:30:00,
2013-01-23 00:35:00,13.3,-1.9,29.82,ENE,68,0.0,0.0,50,0.00,,,0.00,WUHU216HW,2013-01-23 05:35:00,
2013-01-23 01:00:00,12.8,-2.0,29.82,SW,225,0.0,0.0,51,0.00,,,0.00,WUHU216HW,2013-01-23 06:00:00,
2013-01-23 01:05:00,12.8,-2.0,29.82,SW,225,0.0,0.0,51,0.00,,,0.00,WUHU216HW,2013-01-23 06:05:00,
2013-01-23 01:30:00,12.4,-1.6,29.83,North,0,0.0,0.0,53,0.00,,,0.00,WUHU216HW,2013-01-23 06:30:00,
2013-01-23 01:35:00,12.4,-1.6,29.83,North,0,0.0,0.0,53,0.00,,,0.00,WUHU216HW,2013-01-23 06:35:00,
2013-01-23 02:00:00,11.9,-2.1,29.83,North,0,0.0,0.0,53,0.00,,,0.00,WUHU216HW,2013-01-23 07:00:00,
2013-01-23 02:05:00,11.9,-2.1,29.83,North,0,0.0,0.0,53,0.00,,,0.00,WUHU216HW,2013-01-23 07:05:00,
2013-01-23 02:30:00,11.3,-1.8,29.84,SE,135,0.0,0.0,55,0.00,,,0.00,WUHU216HW,2013-01-23 07:30:00,
2013-01-23 02:35:00,11.3,-1.8,29.84,SE,135,0.0,0.0,55,0.00,,,0.00,WUHU216HW,2013-01-23 07:35:00,
2013-01-23 03:00:00,11.3,-1.1,29.84,West,270,0.2,0.2,57,0.00,,,0.00,WUHU216HW,2013-01-23 08:00:00,
2013-01-23 03:05:00,11.3,-1.1,29.84,West,270,0.2,0.2,57,0.00,,,0.00,WUHU216HW,2013-01-23 08:05:00,
2013-01-23 03:30:00,11.7,-0.4,29.83,WNW,293,0.0,0.0,58,0.00,,,0.00,WUHU216HW,2013-01-23 08:30:00,
2013-01-23 03:35:00,11.7,-0.4,29.83,WNW,293,0.0,0.0,58,0.00,,,0.00,WUHU216HW,2013-01-23 08:35:00,
2013-01-23 04:00:00,11.5,-0.5,29.83,ENE,68,0.0,0.0,58,0.00,,,0.00,WUHU216HW,2013-01-23 09:00:00,
2013-01-23 04:05:00,11.5,-0.5,29.83,ENE,68,0.0,0.0,58,0.00,,,0.00,WUHU216HW,2013-01-23 09:05:00,
2013-01-23 04:30:00,11.7,0.0,29.84,North,0,0.0,0.0,59,0.00,,,0.00,WUHU216HW,2013-01-23 09:30:00,
2013-01-23 04:35:00,11.7,0.0,29.84,North,0,0.0,0.0,59,0.00,,,0.00,WUHU216HW,2013-01-23 09:35:00,
2013-01-23 05:00:00,12.6,1.3,29.84,West,270,5.6,5.6,60,0.00,,,0.00,WUHU216HW,2013-01-23 10:00:00,
2013-01-23 05:05:00,12.6,1.3,29.84,West,270,5.6,5.6,60,0.00,,,0.00,WUHU216HW,2013-01-23 10:05:00,
2013-01-23 05:30:00,13.5,1.4,29.84,NW,315,4.7,4.7,58,0.00,,,0.00,WUHU216HW,2013-01-23 10:30:00,
2013-01-23 05:35:00,13.5,1.4,29.84,NW,315,4.7,4.7,58,0.00,,,0.00,WUHU216HW,2013-01-23 10:35:00,
2013-01-23 06:00:00,13.3,0.5,29.84,WNW,293,4.7,4.7,56,0.00,,,0.00,WUHU216HW,2013-01-23 11:00:00,
2013-01-23 06:05:00,13.3,0.5,29.84,WNW,293,4.7,4.7,56,0.00,,,0.00,WUHU216HW,2013-01-23 11:05:00,
2013-01-23 06:30:00,12.8,-0.1,29.85,WNW,293,2.5,2.5,56,0.00,,,0.00,WUHU216HW,2013-01-23 11:30:00,
2013-01-23 06:35:00,12.8,-0.1,29.85,WNW,293,2.5,2.5,56,0.00,,,0.00,WUHU216HW,2013-01-23 11:35:00,
2013-01-23 07:00:00,12.2,-0.6,29.86,WNW,293,2.9,2.9,56,0.00,,,0.00,WUHU216HW,2013-01-23 12:00:00,
2013-01-23 07:05:00,12.2,-0.6,29.86,WNW,293,2.9,2.9,56,0.00,,,0.00,WUHU216HW,2013-01-23 12:05:00,
2013-01-23 07:30:00,12.2,-0.6,29.86,WNW,293,2.0,2.0,56,0.00,,,0.00,WUHU216HW,2013-01-23 12:30:00,
2013-01-23 07:35:00,12.2,-0.6,29.86,WNW,293,2.0,2.0,56,0.00,,,0.00,WUHU216HW,2013-01-23 12:35:00,
2013-01-23 08:00:00,13.3,0.0,29.86,WNW,293,4.7,4.7,55,0.00,,,0.00,WUHU216HW,2013-01-23 13:00:00,
2013-01-23 08:05:00,13.3,0.0,29.86,WNW,293,4.7,4.7,55,0.00,,,0.00,WUHU216HW,2013-01-23 13:05:00,
2013-01-23 08:30:00,15.5,2.1,29.86,West,270,3.6,3.6,55,0.00,,,0.00,WUHU216HW,2013-01-23 13:30:00,
2013-01-23 08:35:00,15.5,2.1,29.86,West,270,3.6,3.6,55,0.00,,,0.00,WUHU216HW,2013-01-23 13:35:00,
2013-01-23 09:00:00,16.9,1.9,29.87,NW,315,2.9,2.9,51,0.00,,,0.00,WUHU216HW,2013-01-23 14:00:00,
2013-01-23 09:05:00,16.9,1.9,29.87,NW,315,2.9,2.9,51,0.00,,,0.00,WUHU216HW,2013-01-23 14:05:00,
2013-01-23 09:30:00,17.6,2.5,29.87,West,270,0.7,0.7,51,0.00,,,0.00,WUHU216HW,2013-01-23 14:30:00,
2013-01-23 09:35:00,17.6,2.5,29.87,West,270,0.7,0.7,51,0.00,,,0.00,WUHU216HW,2013-01-23 14:35:00,
2013-01-23 10:00:00,20.9,3.7,29.88,SW,225,3.6,3.6,47,0.00,,,0.00,WUHU216HW,2013-01-23 15:00:00,
2013-01-23 10:05:00,20.9,3.7,29.88,SW,225,3.6,3.6,47,0.00,,,0.00,WUHU216HW,2013-01-23 15:05:00,
2013-01-23 10:30:00,22.0,1.8,29.86,WSW,248,7.4,7.4,41,0.00,,,0.00,WUHU216HW,2013-01-23 15:30:00,
2013-01-23 10:35:00,22.0,1.8,29.86,WSW,248,7.4,7.4,41,0.00,,,0.00,WUHU216HW,2013-01-23 15:35:00,
2013-01-23 11:00:00,25.2,3.7,29.86,WNW,293,7.8,7.8,39,0.00,,,0.00,WUHU216HW,2013-01-23 16:00:00,
2013-01-23 11:05:00,25.2,3.7,29.86,WNW,293,7.8,7.8,39,0.00,,,0.00,WUHU216HW,2013-01-23 16:05:00,
2013-01-23 11:30:00,24.8,2.2,29.83,NW,315,6.9,6.9,37,0.00,,,0.00,WUHU216HW,2013-01-23 16:30:00,
2013-01-23 11:35:00,24.8,2.2,29.83,NW,315,6.9,6.9,37,0.00,,,0.00,WUHU216HW,2013-01-23 16:35:00,
2013-01-23 12:00:00,27.4,3.7,29.80,WNW,293,9.8,9.8,36,0.00,,,0.00,WUHU216HW,2013-01-23 17:00:00,
2013-01-23 12:05:00,27.4,3.7,29.80,WNW,293,9.8,9.8,36,0.00,,,0.00,WUHU216HW,2013-01-23 17:05:00,
2013-01-23 12:30:00,27.7,2.2,29.79,WNW,293,6.3,6.3,33,0.00,,,0.00,WUHU216HW,2013-01-23 17:30:00,
2013-01-23 12:35:00,27.7,2.2,29.79,WNW,293,6.3,6.3,33,0.00,,,0.00,WUHU216HW,2013-01-23 17:35:00,
2013-01-23 13:00:00,26.3,1.5,29.78,WNW,293,6.5,6.5,34,0.00,,,0.00,WUHU216HW,2013-01-23 18:00:00,
2013-01-23 13:05:00,26.3,1.5,29.78,WNW,293,6.5,6.5,34,0.00,,,0.00,WUHU216HW,2013-01-23 18:05:00,
2013-01-23 13:30:00,25.2,1.2,29.76,West,270,3.8,3.8,35,0.00,,,0.00,WUHU216HW,2013-01-23 18:30:00,
2013-01-23 13:35:00,25.2,1.2,29.76,West,270,3.8,3.8,35,0.00,,,0.00,WUHU216HW,2013-01-23 18:35:00,
2013-01-23 14:00:00,25.6,1.5,29.76,NW,315,5.4,5.4,35,0.00,,,0.00,WUHU216HW,2013-01-23 19:00:00,
2013-01-23 14:05:00,25.6,1.5,29.76,NW,315,5.4,5.4,35,0.00,,,0.00,WUHU216HW,2013-01-23 19:05:00,
2013-01-23 14:30:00,26.5,2.3,29.75,WNW,293,3.8,3.8,35,0.00,,,0.00,WUHU216HW,2013-01-23 19:30:00,
2013-01-23 14:35:00,26.5,2.3,29.75,WNW,293,3.8,3.8,35,0.00,,,0.00,WUHU216HW,2013-01-23 19:35:00,
2013-01-23 15:00:00,27.7,4.1,29.74,West,270,3.6,3.6,36,0.00,,,0.00,WUHU216HW,2013-01-23 20:00:00,
2013-01-23 15:05:00,27.7,4.1,29.74,West,270,3.6,3.6,36,0.00,,,0.00,WUHU216HW,2013-01-23 20:05:00,
2013-01-23 15:30:00,27.2,2.9,29.74,WNW,293,4.0,4.0,35,0.00,,,0.00,WUHU216HW,2013-01-23 20:30:00,
2013-01-23 15:35:00,27.2,2.9,29.74,WNW,293,4.0,4.0,35,0.00,,,0.00,WUHU216HW,2013-01-23 20:35:00,
2013-01-23 16:00:00,37.8,9.2,29.75,NW,315,1.8,1.8,30,0.00,,,0.00,WUHU216HW,2013-01-23 21:00:00,
2013-01-23 16:05:00,37.8,9.2,29.75,NW,315,1.8,1.8,30,0.00,,,0.00,WUHU216HW,2013-01-23 21:05:00,
2013-01-23 16:30:00,28.4,2.8,29.73,WNW,293,0.9,0.9,33,0.00,,,0.00,WUHU216HW,2013-01-23 21:30:00,
2013-01-23 16:35:00,28.4,2.8,29.73,WNW,293,0.9,0.9,33,0.00,,,0.00,WUHU216HW,2013-01-23 21:35:00,
2013-01-23 17:00:00,25.9,1.8,29.73,NW,315,2.2,2.2,35,0.00,,,0.00,WUHU216HW,2013-01-23 22:00:00,
2013-01-23 17:05:00,25.9,1.8,29.73,NW,315,2.2,2.2,35,0.00,,,0.00,WUHU216HW,2013-01-23 22:05:00,
2013-01-23 17:30:00,24.5,1.2,29.73,North,0,0.0,0.0,36,0.00,,,0.00,WUHU216HW,2013-01-23 22:30:00,
2013-01-23 17:35:00,24.5,1.2,29.73,North,0,0.0,0.0,36,0.00,,,0.00,WUHU216HW,2013-01-23 22:35:00,
2013-01-23 18:00:00,23.8,1.2,29.73,WNW,293,1.8,1.8,37,0.00,,,0.00,WUHU216HW,2013-01-23 23:00:00,
2013-01-23 18:05:00,23.8,1.2,29.73,WNW,293,1.8,1.8,37,0.00,,,0.00,WUHU216HW,2013-01-23 23:05:00,
2013-01-23 18:30:00,23.4,1.4,29.72,WNW,293,2.5,2.5,38,0.00,,,0.00,WUHU216HW,2013-01-23 23:30:00,
2013-01-23 18:35:00,23.4,1.4,29.72,WNW,293,2.5,2.5,38,0.00,,,0.00,WUHU216HW,2013-01-23 23:35:00,
2013-01-23 19:00:00,23.0,1.7,29.71,NW,315,0.4,0.4,39,0.00,,,0.00,WUHU216HW,2013-01-24 00:00:00,
2013-01-23 19:05:00,23.0,1.7,29.71,NW,315,0.4,0.4,39,0.00,,,0.00,WUHU216HW,2013-01-24 00:05:00,
2013-01-23 19:30:00,23.0,2.8,29.70,ESE,113,0.4,0.4,41,0.00,,,0.00,WUHU216HW,2013-01-24 00:30:00,
2013-01-23 19:35:00,23.0,2.8,29.70,ESE,113,0.4,0.4,41,0.00,,,0.00,WUHU216HW,2013-01-24 00:35:00,
2013-01-23 20:00:00,22.9,2.7,29.71,East,90,0.4,0.4,41,0.00,,,0.00,WUHU216HW,2013-01-24 01:00:00,
2013-01-23 20:05:00,22.9,2.7,29.71,East,90,0.4,0.4,41,0.00,,,0.00,WUHU216HW,2013-01-24 01:05:00,
2013-01-23 20:10:00,22.9,2.7,29.71,East,90,0.4,0.4,41,0.00,,,0.00,WUHU216HW,2013-01-24 01:10:00,
2013-01-23 20:30:00,22.7,3.0,29.70,SSE,158,0.2,0.2,42,0.00,,,0.00,WUHU216HW,2013-01-24 01:30:00,
2013-01-23 20:35:00,22.7,3.0,29.70,SSE,158,0.2,0.2,42,0.00,,,0.00,WUHU216HW,2013-01-24 01:35:00,
2013-01-23 21:00:00,22.7,3.0,29.71,SE,135,0.0,0.0,42,0.00,,,0.00,WUHU216HW,2013-01-24 02:00:00,
2013-01-23 21:05:00,22.7,3.0,29.71,SE,135,0.0,0.0,42,0.00,,,0.00,WUHU216HW,2013-01-24 02:05:00,
2013-01-23 21:30:00,22.3,3.6,29.71,ESE,113,1.1,1.1,44,0.00,,,0.00,WUHU216HW,2013-01-24 02:30:00,
2013-01-23 21:35:00,22.3,3.6,29.71,ESE,113,1.1,1.1,44,0.00,,,0.00,WUHU216HW,2013-01-24 02:35:00,
2013-01-23 22:00:00,22.3,3.6,29.70,NE,45,0.0,0.0,44,0.00,,,0.00,WUHU216HW,2013-01-24 03:00:00,
2013-01-23 22:05:00,22.3,3.6,29.70,NE,45,0.0,0.0,44,0.00,,,0.00,WUHU216HW,2013-01-24 03:05:00,
2013-01-23 22:30:00,22.1,4.0,29.69,ENE,68,0.4,0.4,45,0.00,,,0.00,WUHU216HW,2013-01-24 03:30:00,
2013-01-23 22:35:00,22.1,4.0,29.69,ENE,68,0.4,0.4,45,0.00,,,0.00,WUHU216HW,2013-01-24 03:35:00,
2013-01-23 23:00:00,21.8,5.0,29.68,North,0,0.4,0.4,48,0.00,,,0.00,WUHU216HW,2013-01-24 04:00:00,
2013-01-23 23:05:00,21.8,5.0,29.68,North,0,0.4,0.4,48,0.00,,,0.00,WUHU216HW,2013-01-24 04:05:00,
2013-01-23 23:30:00,21.2,6.2,29.68,SE,135,0.9,0.9,52,0.00,,,0.00,WUHU216HW,2013-01-24 04:30:00,
2013-01-23 23:35:00,21.2,6.2,29.68,SE,135,0.9,0.9,52,0.00,,,0.00,WUHU216HW,2013-01-24 04:35:00,